Regional Weather Roundup
Issued by NWS Charleston, SC

Current Version | Previous Version | Graphics & Text | Print | Product List | Glossary On
Versions: 1 2 3 4 5 6 7 8 9 10 11 12 13 14 15 16 17 18 19 20 21 22 23 24 25 26 27 28 29 30 31 32 33 34 35 36 37 38 39 40 41 42 43 44 45 46 47 48 49 50
071
ASUS42 KCHS 161127
RWRCHS

Regional Weather Roundup
National Weather Service Charleston SC
600 AM EST SAT DEC 16 2017

NOTE: "fair" indicates few or no clouds below 12,000 feet with no
significant weather and/or obstructions to visibility.

Not all stations are quality controlled. Use data with caution,
especially dewpoint observations.

SCZ027-030-031-034>040-042>050-161200-
...Southeast South Carolina...

CITY           SKY/WX    TMP DP  RH WIND       PRES   REMARKS
N Charleston   CLOUDY    36  28  73 NW6       30.23R WCI  31
Waterfront Prk   N/A     42  30  62 NW5       30.08R
Mount Pleasant FAIR      36  32  87 CALM      30.25R
Johns Island   FAIR      36  30  80 CALM      30.25R
Pinopolis        N/A     43  34  70 N9        30.15R
Moncks Corner  FAIR      32  27  80 CALM      30.25R
Summerville    FAIR      32  30  93 CALM      30.26R
Beaufort MCAS  CLOUDY    38  29  70 NW3       30.25R
Beaufort Arpt  FAIR      37  30  75 NW5       30.25R WCI  34
Hilton Head Is NOT AVBL
Walterboro     MOSUNNY   32  28  86 NW3       30.27R
Allendale      FAIR      30  27  86 CALM      30.25R

...Southern Midlands and Pee Dee...

CITY           SKY/WX    TMP DP  RH WIND       PRES   REMARKS
Georgetown     FAIR      32  32 100 N3        30.25R
Kingstree      FAIR      32  30  93 CALM      30.26R
Orangeburg     CLOUDY    32  25  75 N3        30.24R
Barnwell         N/A     28  25  86 CALM      30.26R
Aiken          FAIR      27  23  86 W3        30.28R
Manning        FAIR      30  28  93 MISG      30.26R
Columbia       MOCLDY    30  27  88 CALM      30.25R
Sumter         PTCLDY    32  26  78 CALM      30.23R
Florence       PTCLDY    30  27  88 CALM      30.24R
Myrtle Beach   PTCLDY    35  31  85 N5        30.25R WCI  31
N Myrtle Beach PTCLDY    32  30  92 CALM      30.23R

$$

GAZ063-065-086>088-099>101-113>116-118-119-134>141-150-161200-
...Southeast Georgia...

CITY           SKY/WX    TMP DP  RH WIND       PRES   REMARKS
Savannah Arpt  PTCLDY    38  27  64 NW7       30.26R WCI  33
Hunter AAF       N/A     39  26  59 NW6         N/A  WCI  35
Fort Stewart     N/A     36  28  72 NW3         N/A
Statesboro     CLOUDY    32  26  78 CALM      30.26R
Sylvania       SUNNY     31  30  94 CALM      30.26R
Claxton        FAIR      34  30  84 CALM      30.26S

...CSRA, Central and far Southeast Georgia...

CITY           SKY/WX    TMP DP  RH WIND       PRES   REMARKS
Thomson        PTCLDY    26  22  87 CALM      30.29S
Augusta-Bush   CLOUDY    28  24  85 CALM      30.25R
Augusta-Daniel CLOUDY    31  24  75 NW3       30.25R
Swainsboro     FAIR      30  28  93 CALM      30.27R
Vidalia        CLOUDY    32  32 100 CALM      30.27R
Eastman        FAIR      32  23  69 CALM      30.30R
Hazlehurst     FAIR      37  24  59 CALM      30.26R
Alma           CLOUDY    36  29  75 CALM      30.25R
Waycross       CLOUDY    39  28  65 CALM      30.27R
Jesup          FAIR      39  27  60 CALM      30.26
Baxley         FAIR      32  28  86 CALM      30.26R
Brunswick      PTCLDY    41  28  60 N5        30.26R
Saint Simons   PTCLDY    44  29  55 N7        30.24R

$$

SCZ027-028-034-036>038-045-046-048>050-GAZ119-141-161200-
...Lake and Supplemental Coastal Observations...

STATION/POSITION TIME  TEMP    WIND        PRES    WAVE   SWELL
                       AIR SEA DIR/SP/G            HT/PER HT/PER/DIR
                 (UTC) (F)     (DEG/KT/KT) (MB)    (FT/S) (FT/S/D)
Winyah Bay       1045   38     350/  5     1024.0R
Lake Murray      1050   34     290/  4/  6 1023.0R
ACE Basin NERRS  1045   37        CALM     1024.0R
Fort Pulaski     1100   40 53  320/  5/  7 1024.5
Sapelo Island    1100   43     360/  8     1024.0

$$

ANZ835-935-AMZ111-154-330-350-352-354-370-450-454-472-161200-
...C-MAN and Buoy Observations...

STATION/POSITION TIME  TEMP    WIND        PRES    WAVE   SWELL
                       AIR SEA DIR/SP/G            HT/PER HT/PER/DIR
                 (UTC) (F)     (DEG/KT/KT) (MB)    (FT/S) (FT/S/D)
Buoy 41004       1110   53 72  360/ 10/ 14 1022.7
Buoy 41008       1050   48 58  350/ 16/ 17 1023.3R   2/ 4
Folly Beach CMAN 1100   41     330/  5/  8 1024.3R
Capers Nearshore 1108   40 56  350/ 12/ 16 1023.3R


STATION/POSITION TIME  TEMP    WIND        PRES    WAVE   SWELL
                       AIR SEA DIR/SP/G            HT/PER HT/PER/DIR
                 (UTC) (F)     (DEG/KT/KT) (MB)    (FT/S) (FT/S/D)
5E St. Marys GA  1100      62                N/A     2/ 4
Frying Pan Buoy  1110   47 68   10/ 16/ 19 1022.6
Buoy 41025       1110   44 72  320/ 16/ 19 1022.2
Cape Lookout NC  1100          340/ 11/ 15 1023.0R
Buoy 41002       1050   67 74  320/ 16/ 19 1019.1R   9/ 8   7/300/ 8
Buoy 41010       NOT AVBL
St Augustine FL  1100   53 63  330/  7/  8 1023.6R


$$




USA.gov is the U.S. government's official web portal to all federal, state and local government web resources and services.